Simultaneous Nadir Overpasses (SNOs) Predictions

Prediction of SNOs near US between AQUA and NPP Satellite Orbit:

Table of predicted SNOs near US for the next 10.0 days since TLE Epoch: 2/16/2013
Index Date (AQUA) Time (AQUA) AQUA Lat,Lon Date (NPP) Time (NPP) NPP Lat,Lon Distance(km) Time Diff (sec)
1 02/17/2013 06:31:55 41.16, -66.86 02/17/2013 06:30:26 41.52, -68.98 181.79 89
2 02/17/2013 08:08:21 49.94, -88.34 02/17/2013 08:09:22 50.42, -90.84 185.40 61
3 02/17/2013 09:47:15 49.91,-113.08 02/17/2013 09:50:50 50.53,-116.16 229.86 215
4 02/19/2013 19:06:59 49.97, -92.69 02/19/2013 18:59:43 49.68, -94.46 131.08 436
5 02/19/2013 20:45:53 49.96,-117.41 02/19/2013 20:41:11 49.56,-119.79 176.07 282
6 02/25/2013 07:24:31 39.93, -80.31 02/25/2013 07:21:42 40.27, -82.12 159.14 169
7 02/25/2013 09:00:57 48.83,-101.87 02/25/2013 09:00:38 49.18,-104.11 167.88 19




NCC Satellite Simultaneous Nadir Overpasses (SNOs) Prediction Service
